Location: ??????
(36.0418°N, 43.6351°E)
Time: 03:27:34
(UTC+00:00)

Cosmos 883 Rocket - Pass Details

Date: 21 June 2021
Orbit: 950 x 996 km, 83.0° (Epoch: 27 July)

Event Time Altitude Azimuth Distance (km) Brightness Sun altitude
Rises 22:25:02 0° 17° (NNE) 3,633 8.8 -27.8°
Reaches altitude 10° 22:30:08 10° 54° (NE) 2,677 7.5 -27.4°
Maximum altitude 22:31:32 11° 67° (ENE) 2,620 7.3 -27.3°
Drops below altitude 10° 22:32:55 10° 81° (E) 2,673 7.1 -27.2°
Sets 22:37:57 0° 117° (ESE) 3,614 7.4 -26.8°
